[[{"header":{"parameterUnit":"m.s-1","parameterCategory":1,"la1":30.2991,"la2":30.254,"lo1":-89.0895,"lo2":-89.0444,"dy":0.0017,"dx":0.0017,"nx":28,"ny":28,"refTime":"2023-07-30T09:00:00:Z","depth":0,"parameterNumber":2,"parameterNumberName":"U-component_of_WINDS"},"data":[0,0,0,0,0,0,0,0,0,0,0,0,0,0,0,0,0,0,0,0,0,0,0,0,0,0,0,0,0,0,0,0,0,0,0,0,0,0,0,0,0,0,0,0,0,0,0,0,0,0,0,0,0,0,0,0,0,0,3.6929,3.693,0,3.7005,3.7006,3.7006,3.6917,3.6914,3.6911,3.6907,3.6987,3.6992,3.6997,0,0,0,0,0,0,0,0,0,0,0,0,0,3.6709,3.6714,3.6929,3.693,3.6931,3.7005,3.7006,3.7007,3.6918,3.6914,3.691,3.6906,3.6985,3.6991,3.6998,0,0,0,0,0,0,0,0,0,0,0,0,0,3.6797,3.6715,3.6929,3.6895,3.6893,3.7004,3.7006,3.7007,3.6919,3.6914,3.6909,3.6904,3.6983,3.6991,3.6999,3.7147,0,0,3.7023,3.7026,0,0,0,0,0,0,0,0,3.6792,3.6805,3.6899,3.6898,3.6896,3.6946,3.6957,3.7054,3.692,3.6909,3.6907,3.6902,3.6978,3.6986,3.7011,3.7151,3.7154,3.7023,3.7028,3.7031,3.7034,0,0,0,0,0,0,0,3.6786,3.6801,3.6959,3.6901,3.6899,3.6877,3.6884,3.6975,3.6971,3.691,3.6903,3.6913,3.6976,3.7004,3.7012,3.7155,3.7023,3.703,3.7035,3.7038,3.7421,3.7426,0,0,0,0,0,0,3.6784,3.6797,3.6957,3.6961,3.683,3.6885,3.6893,3.6935,3.6969,3.697,3.6918,3.6909,3.6993,3.7003,3.7015,3.719,3.7031,3.7039,3.7043,3.7416,3.7422,3.7428,0,0,0,0,0,0,3.6779,3.6799,3.6953,3.6877,3.6895,3.6894,3.6942,3.6939,3.6967,3.6975,3.6974,3.6947,3.6989,3.7004,3.7115,3.7192,3.7042,3.7049,3.7409,3.7418,3.7425,3.7543,0,0,0,0,0,0,3.6773,3.6798,3.6854,3.6879,3.69,3.7052,3.6947,3.6944,3.698,3.697,3.7002,3.7003,3.6986,3.7103,3.7123,3.72,3.7055,3.7402,3.7413,3.7423,3.7532,3.7554,3.7573,0,0,0,0,0,3.6766,3.6884,3.6857,3.6877,3.697,3.7057,3.7068,3.7046,3.6987,3.7044,3.7049,3.7002,3.7181,3.7116,3.7136,3.7217,3.7397,3.741,3.7422,3.7523,3.755,3.7573,0,0,0,0,0,0,3.6868,3.6887,3.6857,3.6987,3.7021,3.7041,3.7112,3.7075,3.7127,3.7115,3.7086,3.7094,3.7212,3.7226,3.7153,3.7363,3.7279,3.7296,3.7349,3.7375,3.7395,3.7389,3.7062,0,0,0,0,0,3.6906,3.6974,3.6987,3.7101,3.712,3.7113,3.715,3.713,3.7164,3.7178,3.7192,3.7227,3.7291,3.7334,3.7393,3.7534,3.754,3.76,3.7621,3.7637,3.7652,3.7728,3.7754,3.7469,3.7468,3.7468,0,0,3.6985,3.7003,3.7048,3.7122,3.7146,3.7218,3.7126,3.7206,3.7259,3.7191,3.7296,3.7308,3.7345,3.7472,3.7528,3.7487,3.7733,3.7653,3.7666,3.7672,3.7743,3.777,3.7794,3.7477,3.7475,3.7474,0,0,3.7164,3.7186,3.7282,3.7308,3.7345,3.734,3.7364,3.739,3.7395,3.75,3.745,3.7514,3.7624,3.7653,3.7682,3.7874,3.7833,3.7894,3.8001,3.8075,3.8097,3.8117,3.8185,3.821,3.7909,3.791,3.791,0,3.7258,3.7363,3.7337,3.7421,3.7455,3.7396,3.7494,3.752,3.7576,3.7601,3.7553,3.7691,3.7712,3.7845,3.7891,3.7917,3.7943,3.789,3.8096,3.8116,3.8134,3.8198,3.8224,3.7917,3.7916,3.7915,3.7915,0,3.7476,3.755,3.7624,3.7678,3.772,3.7811,3.7799,3.7845,3.7822,3.7823,3.7931,3.7954,3.8017,3.8047,3.8026,3.8177,3.815,3.81,3.8015,3.8169,3.8229,3.8253,3.7927,3.7925,3.7922,3.7921,0,0,3.7722,3.776,3.7787,3.7811,3.7848,3.7905,3.7994,3.8054,3.8095,3.8135,3.8208,3.8304,3.8258,3.8291,3.8272,3.8337,3.8487,3.8279,3.8279,3.8316,3.8655,3.8692,3.8721,3.846,3.8465,3.8469,3.8652,0,3.7901,3.8053,3.8032,3.8179,3.8247,3.8192,3.8269,3.8301,3.8304,3.8362,3.8366,3.8434,3.8368,3.8388,3.845,3.8456,3.8554,3.8442,3.8528,3.8532,3.8519,3.8752,3.8791,3.8963,3.8675,3.8679,3.8682,0,3.8131,3.8179,3.8332,3.8358,3.8386,3.8455,3.8509,3.8567,3.8601,3.8599,3.8636,3.8606,3.8695,3.861,3.8732,3.8656,3.869,3.8699,3.8705,3.8711,3.8615,3.8764,3.9017,3.9043,3.8719,3.8716,3.8713,0,3.8294,3.8397,3.8502,3.8524,3.8557,3.8607,3.8624,3.8653,3.8691,3.8739,3.8763,3.8822,3.8853,3.8899,3.8886,3.8825,3.9011,3.8924,3.9011,3.9012,3.9052,3.905,3.9313,3.9076,3.9076,3.9075,3.9075,0,3.8497,3.8593,3.8575,3.864,3.8745,3.8721,3.8827,3.8836,3.8863,3.8929,3.8886,3.8948,3.8927,3.8989,3.8979,3.9081,3.9096,3.9097,3.9093,3.91,3.91,3.9122,3.9109,3.9082,3.908,3.9079,3.9078,0,3.8697,3.8689,3.88,3.8822,3.883,3.8907,3.8926,3.8987,3.8986,3.907,3.9088,3.9088,3.9159,3.915,3.9229,3.9222,3.9349,3.9331,3.9337,3.9333,3.942,3.9412,3.9706,3.9743,3.9483,3.9485,3.9487,0,3.8826,3.8898,3.8928,3.8969,3.8988,3.9055,3.9093,3.9072,3.9114,3.9159,3.9215,3.9281,3.9333,3.9448,3.9455,3.9515,3.9498,3.9597,3.9507,3.9512,3.9499,3.9494,3.9501,3.9615,3.9618,3.962,3.9622,0,3.9056,3.9049,3.9105,3.9162,3.9208,3.9252,3.929,3.9326,3.9309,3.9358,3.9429,3.947,3.955,3.9616,3.9673,3.969,3.9654,3.965,3.9674,3.9681,3.9682,3.9682,3.9385,3.9644,3.9641,3.964,3.9639,3.9638,3.9224,3.9286,3.9316,3.9381,3.9408,3.9445,3.9503,3.951,3.9569,3.9632,3.9616,3.9697,3.973,3.9802,3.9825,3.9888,3.9852,3.9886,3.9894,3.9903,3.9912,3.9672,3.9898,3.9898,3.9897,3.9897,3.9896,0,3.9452,3.9469,3.9529,3.9584,3.9635,3.9596,3.9636,3.9682,3.9753,3.9786,3.9838,3.992,3.9984,3.9997,4.0058,4.0106,4.0091,4.0123,4.0119,4.0123,3.9942,3.9915,4.0134,4.0134,4.0134,4.0134,4.0134,4.0134,3.9576,3.9678,3.9674,3.9789,3.9805,3.9883,3.991,3.9944,3.9971,4.0064,4.0117,4.0124,4.0149,4.0212,4.027,4.0272,4.0296,4.0335,4.033,4.016,4.0136,4.0114,4.0088,4.034,4.0341,4.0507,4.0508,4.0509]},{"header":{"parameterUnit":"m.s-1","parameterCategory":1,"la1":30.2991,"la2":30.254,"lo1":-89.0895,"lo2":-89.0444,"dy":0.0017,"dx":0.0017,"nx":28,"ny":28,"refTime":"2023-07-30T09:00:00:Z","depth":0,"parameterNumber":3,"parameterNumberName":"V-component_of_WINDS"},"data":[0,0,0,0,0,0,0,0,0,0,0,0,0,0,0,0,0,0,0,0,0,0,0,0,0,0,0,0,0,0,0,0,0,0,0,0,0,0,0,0,0,0,0,0,0,0,0,0,0,0,0,0,0,0,0,0,0,0,-0.3975,-0.3974,0,-0.3891,-0.389,-0.3889,-0.3865,-0.3866,-0.3866,-0.3867,-0.3778,-0.3775,-0.3773,0,0,0,0,0,0,0,0,0,0,0,0,0,-0.4111,-0.4109,-0.3975,-0.3974,-0.3973,-0.3891,-0.389,-0.3889,-0.3865,-0.3866,-0.3867,-0.3867,-0.3779,-0.3776,-0.3772,0,0,0,0,0,0,0,0,0,0,0,0,0,-0.4042,-0.4108,-0.3975,-0.3951,-0.3948,-0.3892,-0.389,-0.3889,-0.3865,-0.3866,-0.3867,-0.3867,-0.378,-0.3776,-0.3772,-0.3732,0,0,-0.3759,-0.3757,0,0,0,0,0,0,0,0,-0.4046,-0.4037,-0.3956,-0.3953,-0.3949,-0.389,-0.3906,-0.3836,-0.3865,-0.3897,-0.3867,-0.3868,-0.3814,-0.3807,-0.379,-0.3728,-0.3724,-0.3759,-0.3756,-0.3754,-0.3753,0,0,0,0,0,0,0,-0.4051,-0.4041,-0.3942,-0.3955,-0.3951,-0.3944,-0.3935,-0.3892,-0.3852,-0.3894,-0.3892,-0.3883,-0.3813,-0.3794,-0.3788,-0.3723,-0.3759,-0.3755,-0.3752,-0.3751,-0.3623,-0.3623,0,0,0,0,0,0,-0.406,-0.4045,-0.3944,-0.3939,-0.4001,-0.3941,-0.3931,-0.3908,-0.3853,-0.3845,-0.3882,-0.3882,-0.3801,-0.3793,-0.3785,-0.3734,-0.3754,-0.375,-0.3748,-0.3624,-0.3623,-0.3622,0,0,0,0,0,0,-0.4063,-0.4052,-0.3948,-0.3992,-0.3978,-0.3938,-0.3912,-0.3906,-0.3887,-0.3844,-0.3837,-0.3871,-0.3801,-0.3791,-0.3745,-0.3731,-0.3749,-0.3745,-0.3625,-0.3624,-0.3623,-0.3633,0,0,0,0,0,0,-0.4067,-0.4053,-0.4038,-0.3991,-0.3976,-0.3911,-0.3912,-0.3904,-0.3881,-0.3879,-0.3831,-0.3824,-0.3801,-0.3752,-0.3741,-0.3725,-0.3741,-0.3626,-0.3625,-0.3623,-0.3634,-0.3632,-0.3631,0,0,0,0,0,-0.4072,-0.4043,-0.4037,-0.4025,-0.3956,-0.391,-0.3901,-0.3876,-0.388,-0.3864,-0.3836,-0.3825,-0.3734,-0.3747,-0.3735,-0.3718,-0.3627,-0.3625,-0.3623,-0.3634,-0.3632,-0.3631,0,0,0,0,0,0,-0.4088,-0.4037,-0.4029,-0.3985,-0.3952,-0.3906,-0.3885,-0.3875,-0.3839,-0.3839,-0.3809,-0.3798,-0.3755,-0.3732,-0.3748,-0.3676,-0.368,-0.3676,-0.3693,-0.3691,-0.3689,-0.3695,-0.3738,0,0,0,0,0,-0.4086,-0.4054,-0.4011,-0.3975,-0.396,-0.3926,-0.3904,-0.3888,-0.3853,-0.3838,-0.3807,-0.3772,-0.3736,-0.3712,-0.3676,-0.3631,-0.3619,-0.3613,-0.3611,-0.361,-0.3606,-0.358,-0.3577,-0.3616,-0.3616,-0.3616,0,0,-0.4082,-0.405,-0.4032,-0.3978,-0.3951,-0.3917,-0.3914,-0.3878,-0.3853,-0.3832,-0.3788,-0.3764,-0.3723,-0.3678,-0.3656,-0.3657,-0.3593,-0.3608,-0.3607,-0.3604,-0.3578,-0.3574,-0.3571,-0.3615,-0.3615,-0.3615,0,0,-0.4058,-0.4031,-0.3998,-0.3971,-0.3931,-0.3908,-0.3901,-0.3856,-0.384,-0.3795,-0.3779,-0.3748,-0.3686,-0.3657,-0.3635,-0.36,-0.3589,-0.359,-0.3581,-0.3557,-0.3553,-0.3551,-0.3538,-0.3534,-0.3586,-0.3586,-0.3586,0,-0.4057,-0.4007,-0.3983,-0.3948,-0.3925,-0.3906,-0.3873,-0.3847,-0.3797,-0.378,-0.3783,-0.3704,-0.3675,-0.3623,-0.3615,-0.3597,-0.3587,-0.3594,-0.3556,-0.3553,-0.355,-0.3537,-0.3533,-0.3586,-0.3586,-0.3586,-0.3586,0,-0.4008,-0.3974,-0.3952,-0.3905,-0.3879,-0.3845,-0.3815,-0.3792,-0.3778,-0.3756,-0.371,-0.3675,-0.3632,-0.3618,-0.3604,-0.3564,-0.3566,-0.3562,-0.3566,-0.3547,-0.3534,-0.3529,-0.3587,-0.3587,-0.3587,-0.3586,0,0,-0.399,-0.3931,-0.3923,-0.3901,-0.3856,-0.3828,-0.3793,-0.3752,-0.3732,-0.3698,-0.3667,-0.3616,-0.3613,-0.3587,-0.3569,-0.3548,-0.3522,-0.3547,-0.3545,-0.3543,-0.3475,-0.3478,-0.3472,-0.3515,-0.3514,-0.3513,-0.3479,0,-0.3959,-0.3897,-0.3875,-0.3824,-0.3791,-0.3773,-0.3743,-0.3711,-0.3689,-0.3658,-0.3633,-0.3597,-0.3596,-0.358,-0.3558,-0.353,-0.3508,-0.3532,-0.3485,-0.3484,-0.3496,-0.3466,-0.3468,-0.3437,-0.3474,-0.3473,-0.3472,0,-0.3915,-0.3881,-0.3827,-0.3786,-0.3771,-0.3744,-0.3705,-0.3675,-0.3639,-0.3624,-0.3596,-0.358,-0.3542,-0.3549,-0.3496,-0.3513,-0.3493,-0.3476,-0.3475,-0.3468,-0.3476,-0.3458,-0.3427,-0.3422,-0.3464,-0.3465,-0.3466,0,-0.3906,-0.3848,-0.3808,-0.379,-0.374,-0.3722,-0.37,-0.3664,-0.3641,-0.3606,-0.3591,-0.3552,-0.353,-0.35,-0.3474,-0.3481,-0.3423,-0.3428,-0.3409,-0.341,-0.3397,-0.3398,-0.3361,-0.3385,-0.3385,-0.3385,-0.3386,0,-0.3874,-0.3841,-0.3803,-0.3779,-0.3741,-0.3716,-0.3679,-0.3656,-0.3625,-0.3595,-0.3577,-0.3549,-0.3517,-0.3484,-0.3464,-0.3423,-0.3413,-0.34,-0.3395,-0.3401,-0.3403,-0.3386,-0.3388,-0.3384,-0.3384,-0.3385,-0.3385,0,-0.3857,-0.3831,-0.3786,-0.3744,-0.3732,-0.3707,-0.367,-0.3645,-0.3622,-0.3585,-0.3574,-0.3539,-0.35,-0.3471,-0.342,-0.3407,-0.3363,-0.3358,-0.3375,-0.3373,-0.3356,-0.3357,-0.3306,-0.3298,-0.3329,-0.3328,-0.3328,0,-0.3838,-0.3813,-0.3768,-0.3747,-0.3726,-0.3693,-0.3669,-0.3643,-0.3619,-0.3576,-0.3556,-0.3516,-0.3482,-0.3421,-0.339,-0.3351,-0.3345,-0.3329,-0.3339,-0.3346,-0.3344,-0.3345,-0.3342,-0.3328,-0.3328,-0.3327,-0.3327,0,-0.3806,-0.3795,-0.3762,-0.3725,-0.3698,-0.3667,-0.3635,-0.3619,-0.3587,-0.3561,-0.3522,-0.3496,-0.3445,-0.3405,-0.3364,-0.334,-0.3328,-0.3325,-0.3318,-0.3324,-0.3335,-0.3329,-0.3371,-0.3326,-0.3326,-0.3326,-0.3326,-0.3326,-0.3787,-0.3764,-0.3729,-0.3693,-0.3667,-0.3639,-0.3613,-0.3588,-0.3555,-0.3512,-0.3499,-0.3458,-0.3422,-0.3365,-0.3341,-0.3308,-0.3309,-0.3299,-0.3297,-0.3295,-0.3295,-0.3342,-0.3301,-0.3301,-0.3301,-0.3301,-0.3301,0,-0.3755,-0.3731,-0.3699,-0.3656,-0.3628,-0.3621,-0.3586,-0.3562,-0.3527,-0.3495,-0.3463,-0.3417,-0.3379,-0.3346,-0.3306,-0.3286,-0.3279,-0.3276,-0.3277,-0.3272,-0.3297,-0.3307,-0.3282,-0.3282,-0.3282,-0.3282,-0.3282,-0.3282,-0.3734,-0.3694,-0.3679,-0.3626,-0.3602,-0.3563,-0.3544,-0.3517,-0.3491,-0.3442,-0.341,-0.3389,-0.3356,-0.3314,-0.3278,-0.327,-0.3255,-0.3253,-0.3243,-0.3268,-0.327,-0.3272,-0.328,-0.3251,-0.3251,-0.322,-0.322,-0.3219]}]]